Location: Betpouey
(42.8833°N, 0.0333°E)
Time: 21:33:47
(UTC+00:00)

Cosmos 2297 - Pass Details

Date: 01 December 2020
Orbit: 835 x 860 km, 71.0° (Epoch: 19 January)

Event Time Altitude Azimuth Distance (km) Brightness Sun altitude
Rises 16:46:43 0° 337° (NNW) 3,413 6.8 -4.1°
Reaches altitude 10° 16:49:12 10° 341° (NNW) 2,478 6.1 -4.5°
Maximum altitude 16:54:52 66° 63° (ENE) 928 3.7 -5.4°
Drops below altitude 10° 17:00:32 10° 146° (SE) 2,479 6.0 -6.4°
Sets 17:03:00 0° 149° (SSE) 3,414 6.8 -6.8°
